CW7536 Weather Reports


Display with metric or nautical units.
time (UTC)temp
F
wind
direction
speed
MPH
gust
MPH
rain 1hr
in
rain 24hr
in
rain mn
in
humidity
%
barometer
mb
20260906113049 62 7 0.0 0.0 0.00 0.00 0.00 1 1014.4
20260906111545 61 7 0.0 0.0 0.00 0.00 0.00 1 1014.3
20260906110040 61 7 0.0 0.0 0.00 0.00 0.00 1 1014.3
20260906104540 61 7 0.0 0.0 0.00 0.00 0.00 1 1014.1
20260906103031 61 7 0.0 0.0 0.00 0.00 0.00 1 1013.9
20260906101527 61 7 0.0 0.0 0.00 0.00 0.00 1 1013.7
20260906100023 62 7 0.0 0.0 0.00 0.00 0.00 1 1013.6
20260906094539 62 7 0.0 0.0 0.00 0.00 0.00 1 1013.4
20260906093018 62 7 0.0 0.0 0.00 0.00 0.00 1 1013.2
20260906091508 62 7 0.0 0.0 0.00 0.00 0.00 1 1013.0
20260906090004 62 7 0.0 0.0 0.00 0.00 0.00 1 1012.8
20260906084501 63 7 0.0 0.0 0.00 0.00 0.00 1 1012.7
20260906083100 63 7 0.0 0.0 0.00 0.00 0.00 1 1012.8
20260906081602 63 7 0.0 0.0 0.00 0.00 0.00 1 1012.6
20260906080059 63 7 0.0 0.0 0.00 0.00 0.00 1 1012.4
20260906074554 63 7 0.0 0.0 0.00 0.00 0.00 1 1012.5
20260906073046 63 7 0.0 0.0 0.00 0.00 0.00 1 1012.5
20260906071542 64 7 0.0 0.0 0.00 0.00 0.00 1 1012.5
20260906070037 64 7 0.0 0.0 0.00 0.00 0.00 1 1012.3
20260906064533 64 7 0.0 0.0 0.00 0.00 0.00 1 1012.5
20260906063031 64 7 0.0 0.0 0.00 0.00 0.00 1 1012.5
20260906061528 64 7 0.0 0.0 0.00 0.00 0.00 1 1012.6
20260906060019 64 7 0.0 1.0 0.00 0.00 0.00 1 1012.8
20260906054518 64 7 0.0 1.0 0.00 0.00 0.00 1 1012.8
20260906053011 64 7 0.0 0.0 0.00 0.00 0.00 1 1012.9
20260906051507 65 7 0.0 0.0 0.00 0.00 0.00 1 1012.8
20260906050002 65 7 0.0 0.0 0.00 0.00 0.00 1 1012.8
20260906044602 66 7 0.0 1.0 0.00 0.00 0.00 1 1012.9
20260906043053 65 7 0.0 1.0 0.00 0.00 0.00 1 1012.8
20260906041549 66 7 0.0 0.0 0.00 0.00 0.00 1 1012.6
20260906040052 66 7 0.0 0.0 0.00 0.00 0.00 1 1012.7
20260906034540 66 7 0.0 0.0 0.00 0.00 0.00 1 1012.7
20260906033045 66 67 0.0 0.0 0.00 0.00 0.00 1 1012.7
20260906031538 66 79 0.0 1.0 0.00 0.00 0.00 1 1012.6
20260906030027 66 81 0.0 0.0 0.00 0.00 0.00 1 1012.4
20260906024539 67 81 0.0 0.0 0.00 0.00 0.00 1 1012.5
20260906023022 67 82 0.0 0.0 0.00 0.00 0.00 1 1012.5
20260906021514 68 82 0.0 0.0 0.00 0.00 0.00 1 1012.4
20260906020010 69 82 0.0 0.0 0.00 0.00 0.00 1 1012.4
20260906014509 70 77 0.0 2.0 0.00 0.00 0.00 1 1012.3
20260906013003 70 32 0.0 1.0 0.00 0.00 0.00 1 1011.9
20260906011604 70 48 0.0 1.0 0.00 0.00 0.00 1 1011.8
20260906010054 70 48 0.0 0.0 0.00 0.00 0.00 1 1011.8
20260906004549 70 48 0.0 0.0 0.00 0.00 0.00 1 1011.6
20260906003043 71 48 0.0 0.0 0.00 0.00 0.00 1 1011.4
20260906001541 71 48 0.0 0.0 0.00 0.00 0.00 6 1011.1
20260906000039 72 48 0.0 0.0 0.00 0.00 0.00 14 1011.0
20260905234532 73 48 0.0 1.0 0.00 0.00 0.00 20 1010.8
20260905233026 74 48 0.0 0.0 0.00 0.00 0.00 24 1010.8
20260905231521 75 48 0.0 1.0 0.00 0.00 0.00 28 1010.9
20260905230016 76 56 0.0 1.0 0.00 0.00 0.00 31 1010.8
20260905224511 77 74 0.0 2.0 0.00 0.00 0.00 31 1010.7
20260905223007 78 80 0.0 1.0 0.00 0.00 0.00 31 1010.6
20260905221503 78 74 0.0 1.0 0.00 0.00 0.00 30 1010.5
20260905220058 77 76 0.0 0.0 0.00 0.00 0.00 30 1010.4
20260905214556 77 34 0.0 1.0 0.00 0.00 0.00 31 1010.4
20260905213100 77 33 0.0 3.0 0.00 0.00 0.00 32 1010.3
20260905211546 77 33 0.0 2.0 0.00 0.00 0.00 33 1010.2
20260905210050 78 64 0.0 1.0 0.00 0.00 0.00 33 1010.0
20260905204543 77 40 0.0 2.0 0.00 0.00 0.00 33 1010.1
20260905203034 78 32 0.0 2.0 0.00 0.00 0.00 33 1010.0
20260905201527 79 56 0.0 2.0 0.00 0.00 0.00 33 1009.9
20260905200023 79 44 0.0 3.0 0.00 0.00 0.00 32 1010.0
20260905194518 79 69 0.0 5.0 0.00 0.00 0.00 32 1010.0
20260905193014 79 69 0.0 2.0 0.00 0.00 0.00 30 1010.0
20260905191509 79 356 0.0 1.0 0.00 0.00 0.00 30 1010.1
20260905190004 78 56 0.0 2.0 0.00 0.00 0.00 31 1010.1
20260905184601 79 286 0.0 3.0 0.00 0.00 0.00 30 1010.3
20260905183056 79 280 0.0 1.0 0.00 0.00 0.00 30 1010.4
20260905181606 80 360 0.0 4.0 0.00 0.00 0.00 29 1010.3
20260905180047 79 281 0.0 10.0 0.00 0.00 0.00 29 1010.5
20260905174543 79 92 0.0 5.0 0.00 0.00 0.00 28 1010.6
20260905173041 78 53 1.0 5.0 0.00 0.00 0.00 28 1010.6
20260905171538 79 18 1.0 5.0 0.00 0.00 0.00 27 1010.8
20260905170034 78 25 0.0 5.0 0.00 0.00 0.00 27 1011.1
20260905164529 77 316 0.0 5.0 0.00 0.00 0.00 25 1011.0
20260905163026 77 25 0.0 2.0 0.00 0.00 0.00 24 1011.0
20260905161520 76 72 0.0 6.0 0.00 0.00 0.00 23 1011.0
20260905160015 76 25 2.0 5.0 0.00 0.00 0.00 24 1011.0
20260905154512 77 90 1.0 5.0 0.00 0.00 0.00 24 1010.8
20260905153008 76 68 1.0 7.0 0.00 0.00 0.00 23 1010.9
20260905151504 76 46 3.0 6.0 0.00 0.00 0.00 22 1011.0
20260905150059 76 315 0.0 2.0 0.00 0.00 0.00 19 1011.0
20260905144555 76 359 1.0 5.0 0.00 0.00 0.00 18 1011.0
20260905143050 76 44 2.0 5.0 0.00 0.00 0.00 15 1010.9
20260905141546 75 13 2.0 7.0 0.00 0.00 0.00 17 1010.8
20260905140041 76 308 0.0 3.0 0.00 0.00 0.00 12 1010.8
20260905134539 75 37 0.0 5.0 0.00 0.00 0.00 9 1010.8
20260905133032 75 40 1.0 5.0 0.00 0.00 0.00 5 1010.7
20260905131529 74 70 0.0 3.0 0.00 0.00 0.00 1 1010.9
20260905130024 72 35 0.0 2.0 0.00 0.00 0.00 1 1010.9
20260905124523 70 73 0.0 3.0 0.00 0.00 0.00 1 1011.1
20260905123019 69 98 1.0 4.0 0.00 0.00 0.00 1 1011.4
20260905121510 68 111 0.0 3.0 0.00 0.00 0.00 1 1011.3
20260905120005 67 18 0.0 1.0 0.00 0.00 0.00 1 1011.2
20260905114501 66 36 0.0 1.0 0.00 0.00 0.00 1 1011.1